Location: Gorze? G�rny
(49.8500°N, 19.5000°E)
Time: 05:26:15
(UTC+00:00)

CZ-2C R/B - Pass Details

Date: 13 May 2021
Orbit: 640 x 703 km, 98.3° (Epoch: 20 June)

Event Time Altitude Azimuth Distance (km) Brightness Sun altitude
Rises 18:59:34 0° 21° (NNE) 2,977 7.3 -6.3°
Reaches altitude 10° 19:01:57 10° 31° (NNE) 2,069 6.4 -6.6°
Maximum altitude 19:06:05 34° 97° (E) 1,078 4.4 -7.1°
Drops below altitude 10° 19:10:14 10° 163° (SSE) 2,086 5.8 -7.6°
Enters shadow 19:11:54 - 170° (S) 2,717 6.4 -7.8°
